User: anonymous   Login
Location: Theydon Bois
(51.6750°N, 0.1050°E)
Time: 07:11:50
(UTC+01:00)
Language:

Cosmos 2056 Rocket - Orbit

View from above orbital plane
View from above orbital plane
View from above satellite
View from above satellite

Ground track
Ground track

The orbit data is extracted from the following two-line orbital elements,

1 20433U 90004B   17296.58116234 +.00000076 +00000-0 +34860-4 0  9998
2 20433 074.0341 120.4565 0041576 219.4835 172.3303 14.36004504453357
Epoch (UTC): 23 October 2017 13:56:52
Eccentricity: 0.0041576
inclination: 74.0341°
perigee height: 742 km
apogee height: 801 km
right ascension of ascending node: 120.4565°
argument of perigee: 219.4835°
revolutions per day: 14.36004504
mean anomaly at epoch: 172.3303°
orbit number at epoch: 45335

The dashed part of the orbit path shows where the satellite is in the earth's shadow,  

DLR